Location: Praha
(50.0830°N, 14.4670°E)
Time: 14:34:55
(UTC+01:00)

ISS - Pass Details

Date: 21 March 2019
Orbit: 408 x 411 km, 51.6° (Epoch: 25 March)

Event Time Altitude Azimuth Distance (km) Brightness Sun altitude
Rises 20:25:27 0° 224° (SW) 2,326 0.2 -20.8°
Reaches altitude 10° 20:27:38 10° 215° (SW) 1,468 -0.9 -21.1°
Enters shadow 20:27:57 12° 213° (SSW) 1,349 -1.2 -21.1°
